Weather Roundup
Issued by NWS

Home | Current Version | Previous Version | Text Only | Print | Product List | Glossary On
Versions: 1 2 3 4 5 6 7 8 9 10 11 12 13 14 15 16 17 18 19 20 21 22 23 24 25 26 27 28 29 30 31 32 33 34 35 36 37 38 39 40 41 42 43 44 45 46 47 48 49 50
000
NZUS93 KARX 221659
HRRWXR

CURRENT HOURLY OBSERVATIONS ACROSS
MUCH OF THE UPPER MISSISSIPPI VALLEY
NATIONAL WEATHER SERVICE LA CROSSE WI
1200 PM CDT THU JUN 22 2017


...SOUTHEAST MINNESOTA...


CITY           SKY/WX    TMP DP  RH WIND       PRES   REMARKS
ROCHESTER      LGT RAIN  66  65  96 W12       29.79R
ROCHESTER/MAYO CLOUDY    66  66 100 W8G22     29.78R
WINONA         TSTM      70  66  88 SE12      29.70F
AUSTIN         CLOUDY    68  64  88 W3        29.75R THUNDER
ALBERT LEA     CLOUDY    70  68  94 CALM      29.75F
DODGE CENTER   LGT RAIN  66  64  94 SE8       29.76R
PRESTON        TSTM      65  64  93 S10       29.70F
OWATONNA       CLOUDY    70  64  83 N7        29.75F THUNDER
FARIBAULT      CLOUDY    70  68  94 N3        29.75F FOG
$$

...ELSEWHERE IN MINNESOTA...


CITY           SKY/WX    TMP DP  RH WIND       PRES   REMARKS
MINNEAPOLIS    CLOUDY    69  64  84 VRB5      29.73F
INTNL FALLS    MOSUNNY   69  46  43 W8        29.66R
DULUTH         CLOUDY    69  52  54 W7        29.69F
RED WING       LGT RAIN  70  66  88 NE8       29.73S
REDWOOD FALLS  RAIN      68  63  84 NE5       29.71R
MANKATO        CLOUDY    72  68  87 E14       29.68F
WORTHINGTON    CLOUDY    75  64  68 E17       29.71F
FAIRMONT       MOSUNNY   75  69  81 E10       29.71F
$$

...SOUTHWEST WISCONSIN...


CITY           SKY/WX    TMP DP  RH WIND       PRES   REMARKS
LA CROSSE      RAIN      71  66  84 SW15G25   29.78R
PRAIRIE DU CHI CLOUDY    68  67  95 S3        29.75R
BOSCOBEL       CLOUDY    71  66  84 SW10      29.74F
LONE ROCK      NOT AVBL
PLATTEVILLE    CLOUDY    79  67  68 S17G23    29.77F
FORT MC COY    CLOUDY    72  65  80 CALM      29.74R
MAUSTON-NEW LI LGT RAIN  72  65  81 NW3       29.73S
VIROQUA        FAIR      70  66  88 W9        29.77R
WIS DELLS      LGT RAIN  69  65  88 CALM      29.72F
$$

...ELSEWHERE IN WISCONSIN...


CITY           SKY/WX    TMP DP  RH WIND       PRES   REMARKS
MILWAUKEE      CLOUDY    81  67  62 SW13      29.77F
MADISON        PTSUNNY   76  68  76 SW8G17    29.75F
GREEN BAY      CLOUDY    77  70  79 SW7       29.73S
EAU CLAIRE     LGT RAIN  69  68  96 W5        29.75R FOG
BLACK RVR FLS  RAIN      71  71 100 SW7       29.77R
MEDFORD        CLOUDY    69  66  89 SW3       29.73S
WAUSAU         CLOUDY    69  68  96 SW8       29.72S
WIS RAPIDS     CLOUDY    72  68  87 S6        29.76R
MARSHFIELD     RAIN      69  66  90 W6        29.74R FOG
RICE LAKE      RAIN      65  64  93 W3        29.79R
$$

...NORTHEAST IOWA...


CITY           SKY/WX    TMP DP  RH WIND       PRES   REMARKS
WATERLOO       CLOUDY    74  66  76 SE10      29.73R
DUBUQUE        CLOUDY    79  67  66 S15       29.78F
DECORAH        DRIZZLE   70  66  88 NE7       29.76R
MASON CITY     CLOUDY    76  68  76 S6        29.74R
CHARLES CITY   PTSUNNY   73  72  94 S14       29.72F
OELWEIN        LGT RAIN  72  68  88 S12       29.77R
$$

...ELSEWHERE IN IOWA...


CITY           SKY/WX    TMP DP  RH WIND       PRES   REMARKS
DES MOINES     CLOUDY    81  64  57 S9        29.72R THUNDER
IOWA CITY      CLOUDY    84  71  65 SE10      29.78F
FORT DODGE     MOSUNNY   84  63  48 CALM      29.70S
MARSHALLTOWN   CLOUDY    74  68  81 SE7       29.73F
CEDAR RAPIDS   CLOUDY    76  71  85 E7        29.77F
$$

...NORTHERN ILLINOIS...


CITY           SKY/WX    TMP DP  RH WIND       PRES   REMARKS
CHICAGO-OHARE  PTSUNNY   86  68  54 SW17G24   29.82S
CHICAGO-MIDWAY CLOUDY    86  68  54 S14       29.82F
MOLINE         CLOUDY    83  68  60 SW3       29.80R
ROCKFORD       CLOUDY    84  68  58 W12       29.83F
PEORIA         CLOUDY    82  71  69 S14G23    29.83S
$$

NOTE: "FAIR" INDICATES FEW OR NO CLOUDS BELOW 12,000 FEET WITH NO
SIGNIFICANT WEATHER AND/OR OBSTRUCTIONS TO VISIBILITY. WIND
SPEEDS ARE IN MILES-PER-HOUR.




USA.gov is the U.S. government's official web portal to all federal, state and local government web resources and services.